Volver al catálogo

SCOUT A R/B

ActivoPO
NORAD 2811·ROCKET BODY·🇺🇸 United States

Lanzado May 18, 1967 desde Vandenberg Space Force Base

Loading…

Próximos Pases (próximas 24 horas)

TLE

ActualizadoSource: Space-Track

Época: Sep 14, 2026, 05:09 UTC

1 02811U 67048B   26257.21464561  .00000072  00000-0  97682-4 0  9993
2 02811  89.6838 348.0249 0021488 101.7571 287.0132 13.49340863918519

Sigue SCOUT A R/B en tiempo real con AllMySat

Download on the App Store